Location: Unspecified
(0.0000°N, 0.0000°E)
Time: 07:45:25
(UTC+00:00)

Explorer 11/Cluster Stage 4 - Pass Details

Date: 16 July 2020
Orbit: 467 x 1259 km, 28.8° (Epoch: 03 August)

Event Time Altitude Azimuth Distance (km) Brightness Sun altitude
Rises 19:36:09 0° 270° (W) 4,191 11.5 -20.9°
Reaches altitude 10° 19:39:50 10° 256° (WSW) 3,228 10.4 -21.7°
Maximum altitude 19:45:58 23° 208° (SSW) 2,340 9.0 -23.2°
Enters shadow 19:49:37 17° 173° (S) 2,615 8.9 -24.0°
Drops below altitude 10° 19:51:46 10° 159° (SSE) 3,029 - -24.5°
Sets 19:55:07 0° 144° (SE) 3,874 - -25.3°
